This is the latest recevied weather packets stored in our database for station/object KMASWX. If no packets are shown the sender has not sent any weather packets the latest 10 day(s).
| Time | Temp. | Humidity | Pressure | Rain* | Wind** | Luminosity | Snow |
|---|---|---|---|---|---|---|---|
| 1777930532 | 27.22° C | 19% | - | 0 mm | - | - | - |
| 1777930228 | 28.33° C | 20% | - | 0 mm | - | - | - |
| 1777929920 | 27.22° C | 23% | - | 0 mm | - | - | - |
| 1777929617 | 26.67° C | 20% | - | 0 mm | - | - | - |
| 1777929313 | 26.67° C | 21% | - | 0 mm | - | - | - |
| 1777929010 | 26.67° C | 21% | - | 0 mm | - | - | - |
| 1777928703 | 26.67° C | 24% | - | 0 mm | - | - | - |
| 1777928399 | 26.67° C | 21% | - | 0 mm | - | - | - |
| 1777928091 | 26.67° C | 21% | - | 0 mm | - | - | - |
| 1777927788 | 26.67° C | 21% | - | 0 mm | - | - | - |
| 1777927484 | 27.22° C | 22% | - | 0 mm | - | - | - |
| 1777927181 | 27.22° C | 20% | - | 0 mm | - | - | - |
| 1777926877 | 26.11° C | 23% | - | 0 mm | - | - | - |
| 1777926270 | 26.11° C | 22% | - | 0 mm | - | - | - |
| 1777925967 | 26.67° C | 21% | - | 0 mm | - | - | - |
| 1777925663 | 27.22° C | 23% | - | 0 mm | - | - | - |
| 1777925358 | 26.11° C | 24% | - | 0 mm | - | - | - |
| 1777925051 | 25° C | 24% | - | 0 mm | - | - | - |
| 1777924443 | 26.11° C | 24% | - | 0 mm | - | - | - |
| 1777924137 | 25.56° C | 25% | - | 0 mm | - | - | - |
| 1777923833 | 25.56° C | 24% | - | 0 mm | - | - | - |
| 1777923530 | 25° C | 24% | - | 0 mm | - | - | - |
| 1777923223 | 25° C | 25% | - | 0 mm | - | - | - |
| 1777922920 | 25.56° C | 25% | - | 0 mm | - | - | - |
| 1777922616 | 25.56° C | 27% | - | 0 mm | - | - | - |
* Rain latest 24 hours (hover to see other rain measurements)
** Current wind speed in m/s (hover to see current wind gust speed)